ONEWEB-0421, 50496

Orbit data source: Space-Track

ONEWEB-0421, 50496 is a payload satellite owned by One Web (NAA) (UK) in LEO that was launched on Mon, 27 Dec 2021 UTC via a SOYUZ-2-1B launch vehicle from the Tyuratam Missile And Space Complex (TTMTR). Payload-class satellites include a variety of spacecraft equipped with specific instruments for various scientific and technological missions. These include communications satellites like Starlink; space stations such as the ISS; scientific satellites like the Hubble; Earth observation satellites from companies like Planet Labs, Umbra, and HawkEye 360; GPS; miniature CubeSats for education and research; and military/defense satellites.

Loading next visibility...
Identifier
50496, 2021-132AD
Orbit
LEO
Country
Flag of UKUK
Related business
Manufacturer
One Web
Mission
Operational Commercial Communications
Bus & Motor
ARROW, Unknown motor
Mass
148 kg wet, ~140 kg dry
Launch date (UTC)
2021-12-27 (4 years ago)
Launch vehicle
SOYUZ-2-1B
Launch site
Tyuratam Missile And Space Complex (TTMTR)
Object type
Payload
Rocket body
Debris
Shape & HBR
Trap Box + 2 Pan, 6.7 m
Radar Cross Section
3.464 m², Large (>1 m²)

Expand to show TLE details & history
Last TLE update: 2 days ago

TLE from 2 days ago
0 ONEWEB-0421
1 50496U 21132AD  26171.42824735 -.00000005  00000-0 -45924-4 0  9990
2 50496  87.9165 334.8117 0001734  82.2780 277.8549 13.18684630222043
Epoch: 2026-06-20T10:16Z
TLE epoch observation values (Epoch: 2026-06-20T10:16:40.571Z)
Latitude
Longitude
-88.00036°
Altitude
1,192.469 km
Speed
7.258 km/s
True Right ascension
22h 19m 14s
True Declination
0° 00' 00"
Sunlit
Object was in daylight at epoch
Visualization orbit readout
Latitude
Unknown
Longitude
Unknown
Altitude
Unknown
Speed
Unknown
Apparent Right ascension
Unknown
Apparent Declination
Unknown
Sunlit
N/A
Visualization observer readout
Local Sidereal Time
21:34:34
Azimuth
Unknown
Elevation
Unknown
Doppler factor
Unknown
Orbital elements
Apogee altitude
1,188.167 km
Perigee altitude
1,185.544 km
Semi-major axis
7,564.993 km
Eccentricity
0.00017
Inclination
87.9165°
RAAN
334.8117°
Arg. of periapsis
82.278°
True anomaly
277.83522°
Mean anomaly
277.8549°
Eccentric anomaly
277.84506°
Mean motion
3.29861 °/min
Orbital period
109.14 mins
BSTAR
-0.000045924
Loading maneuver chart data...
Computing Atmospheric mass density...
Loading historical data...
Loading historical data...
Loading historical data...
Loading historical data...
Loading historical data...
Loading historical data...
Loading historical data...

Documentation

Showing up to 5 results
|